Main page
METAR-TAF:

METAR-TAF

Airports :

Fasa, Iran

latitude: 28-58N, longitude: 053-41E, elevation: 1383 m

Current weather observation

The report was made 1 hour and 5 minutes ago, at 13:00 UTC
Calm wind
Temperature 29°C
Humidity 12%
Pressure 1013 hPa
Visibility 10 km or more
no clouds below 1500 m and no cumulonimbus

METAR: OISF 211300Z 00000KT CAVOK 29/M03 Q1013

Time: 17:35 (14:05 UTC)


TAF: missing

Weather observations and forecasts of more than 4000 airports (METAR and TAF reports).

The available stations are represented by yellow and red dots on the map.

Hover mouse over dot to see the name of the station.

Then click to see weather observations and forecasts.

To change the map : click on the green buttons with a black cross to zoom in, on the green button with a dash to zoom out, or on the green arrows for adjacent maps.


METAR-TAF: